{"data":{"norad_id":62865,"epoch":"2026-09-21T02:29:02.535648Z","epoch_age_seconds":116004,"freshness":"FRESH","line1":"1 62865U 25022M   26264.10350157  .00014123  00000+0  42830-3 0  9990","line2":"2 62865  53.1595 298.7668 0001209  72.2376 287.8759 15.34402777 91851","mean_motion":15.34402777,"eccentricity":0.0001209,"inclination_deg":53.1595,"raan_deg":298.7668,"arg_perigee_deg":72.2376,"mean_anomaly_deg":287.8759,"bstar":0.0004283,"rev_number":9185,"period_min":93.847588233347,"perigee_km":461.86792980317,"apogee_km":463.52204297748,"semimajor_km":6840.8319863903,"source":"CELESTRAK","updated_at":"2026-09-22T09:00:49.677824Z"}}